Location: CNYAC Observatory
(43.2150°N, 74.9500°W)
Time: 05:17:29
(UTC-04:00)

Daily predictions for brighter satellites

Satellite Brightness Start Highest point End
(mag) Time Altitude Azimuth Time Altitude Azimuth Time Altitude Azimuth
H-2A R/B 4.3 00:10:18 21° NW 00:10:18 21° NW 00:12:12 10° NW
ATLAS 3B R/B 4.3 00:07:08 10° WNW 00:11:07 19° W 00:11:07 19° W
Cosmos 2219 Rocket 3.1 00:14:24 43° WNW 00:14:24 43° WNW 00:19:44 10° NNE
SL-16 R/B 3.6 00:21:37 30° NE 00:21:37 30° NE 00:24:31 10° NE
CZ-2C R/B 3.5 00:15:41 10° NNE 00:19:21 45° NNE 00:19:21 45° NNE
Terra 4.4 00:24:36 13° WNW 00:24:36 13° WNW 00:25:59 10° WNW
NOSS 3-2 (C) 4.4 00:19:45 10° NW 00:26:27 51° WSW 00:26:27 51° WSW
Cosmos 2333 Rocket 3.3 00:32:48 38° NW 00:32:48 38° NW 00:37:54 10° NNE
Mayak 1.3 00:51:02 10° NNE 00:52:18 19° NNE 00:52:18 19° NNE
NOSS 3-4 (C) 4.5 00:54:09 38° WNW 00:55:16 40° NW 01:01:25 10° NNE
Cosmos 2237 Rocket 3.4 00:57:08 35° NW 00:57:08 35° NW 01:01:51 10° N
Cosmos 2369 Rocket 3.8 00:54:50 10° N 00:59:41 28° NE 00:59:57 28° ENE
CENTAUR R/B 3.1 00:57:23 10° NW 01:04:38 69° W 01:04:38 69° W
Nadezhda 3 Rocket 4.4 01:02:30 10° N 01:07:39 60° NNW 01:07:39 60° NNW
Cosmos 2341 Rocket 4.5 01:10:16 56° NE 01:10:16 56° NE 01:15:14 10° NNE
USA 215 3.4 01:13:10 69° NNW 01:13:10 69° NNW 01:18:54 10° NW
Lacrosse 5 4.5 01:19:12 10° NW 01:22:36 17° N 01:25:59 10° NE
ATLAS CENTAUR R/B 3.9 01:28:56 10° NW 01:35:02 38° NW 01:35:02 38° NW
COSMOS 2455 4.4 01:39:30 10° NW 01:42:18 26° WNW 01:42:18 26° WNW
Cosmos 1603 4.4 01:55:31 51° N 01:55:31 51° N 01:59:45 10° NNE
SL-16 R/B 3.7 02:03:29 26° NW 02:03:29 26° NW 02:08:11 10° N
Cosmos 1937 Rocket 4.5 02:15:15 10° NNW 02:18:46 43° NNW 02:18:46 43° NNW
Cosmos 1943 Rocket 2.5 02:26:39 10° NNW 02:31:11 60° N 02:31:11 60° N
SL-16 R/B 3.4 02:30:31 31° ESE 02:32:52 45° ENE 02:38:43 10° N
Cosmos 1821 Rocket 4.4 02:35:32 50° ESE 02:36:11 52° E 02:42:12 10° NNE
Resurs 1-4 Rocket 3.4 02:33:26 10° NE 02:38:05 31° E 02:38:22 31° ESE
IRS-P3 4.4 02:33:24 10° NNE 02:38:11 61° ENE 02:38:11 61° ENE
Gblst 52 Del rocket 4.3 02:41:58 79° NNE 02:41:58 79° NNE 02:47:22 10° ENE
BREEZE-M DEB (TANK) 4.4 02:44:13 24° ENE 02:44:13 24° ENE 02:46:17 10° ENE
Cosmos 2369 Rocket 3.4 02:38:29 10° NW 02:41:42 32° NW 02:41:42 32° NW
CZ-3A R/B 3.4 02:36:54 10° NW 02:47:35 88° NE 02:52:54 10° SE
Cosmos 371 Rocket 4.4 02:48:53 38° NNW 02:48:53 38° NNW 02:52:25 10° N
CZ-2D R/B 3.1 02:43:29 10° NNE 02:48:29 38° E 02:48:56 37° ESE
Cosmos 1934 Rocket 4.4 02:50:06 46° ESE 02:51:07 51° E 02:56:58 10° NNE
AQUA 4.2 02:50:56 10° NNE 02:55:02 61° NE 02:55:02 61° NE
Cosmos 1943 3.7 02:56:08 49° NW 02:56:08 49° NW 03:01:27 10° NNE
USA 32 4.1 02:55:46 10° N 03:01:02 74° E 03:01:02 74° E
Cosmos 841 Rocket 3.6 03:01:51 68° NNW 03:01:51 68° NNW 03:06:33 10° NNE
Helios 1A Rocket 4.3 03:01:33 10° N 03:04:07 35° NNW 03:04:07 35° NNW
Lacrosse 5 4.3 03:03:23 10° NNW 03:07:14 21° NNE 03:11:05 10° ENE
COBE Rocket 4.4 03:03:36 10° N 03:07:53 50° NW 03:07:53 50° NW
ARIANE 5 R/B 3.1 03:06:17 10° NNE 03:11:24 51° E 03:12:11 47° SE
Cosmos 1000 Rocket 4.4 03:06:18 10° NNW 03:12:30 69° W 03:12:56 67° WSW
Cosmos 1500 Rocket 4.5 03:08:49 10° NNW 03:11:48 41° NNW 03:11:48 41° NNW
SL-08 R/B 4.1 03:15:58 41° NW 03:15:58 41° NW 03:19:17 10° NNW
BREEZE-M DEB (TANK) 4.0 03:13:14 45° W 03:15:06 70° NNW 03:35:06 10° ENE
Cosmos 1626 4.1 03:13:08 10° NNW 03:14:42 23° NNW 03:14:42 23° NNW
UNK 3.8 03:19:10 71° NNW 03:19:10 71° NNW 03:23:17 10° NNW
Cosmos 304 Rocket 3.9 03:20:35 62° NW 03:20:35 62° NW 03:24:58 10° NNE
Cosmos 2239 Rocket 4.4 03:19:57 63° SW 03:20:51 72° W 03:27:11 10° N
NOAA 9 4.5 03:16:04 10° NNE 03:21:30 88° WNW 03:22:01 74° SSW
ADEOS Rocket 3.0 03:16:14 10° N 03:21:32 51° WNW 03:21:45 51° WNW
Cosmos 1400 Rocket 3.5 03:19:51 10° N 03:23:32 51° ENE 03:23:32 51° ENE
UNKNOWN OBJECT B 4.3 03:20:21 10° NNE 03:24:01 31° E 03:24:33 30° ESE
Cosmos 1726 3.7 03:29:16 28° ESE 03:29:39 29° E 03:32:54 10° NNE
SL-27 R/B 4.4 03:34:31 23° E 03:34:32 23° E 03:37:17 10° NE
IRS-1D 3.4 03:30:36 10° NNE 03:35:46 85° WNW 03:36:35 65° SSW
Cosmos 2221 2.4 03:41:00 78° WNW 03:41:00 78° WNW 03:45:17 10° N
Cosmos 1805 Rocket 3.6 03:37:02 10° N 03:41:30 75° E 03:42:20 56° SSE
Cosmos 2058 4.4 03:37:55 10° NNW 03:40:03 25° NW 03:40:03 25° NW
ADEOS 3.5 03:38:40 10° NNE 03:43:55 86° ESE 03:45:16 51° S
Spot 4 Rocket 4.0 03:39:07 10° N 03:44:16 71° WNW 03:45:09 58° SW
NPP 4.4 03:42:03 10° N 03:46:54 35° WNW 03:47:30 34° W
COSMOS 2406 3.2 03:47:04 47° SSW 03:48:46 82° ESE 03:54:30 10° NNE
Cosmos 2285 Rocket 4.1 03:46:52 37° S 03:49:35 74° ESE 03:55:59 10° NNE
Cosmos 372 Rocket 3.9 03:45:09 10° NNW 03:50:15 61° WSW 03:51:00 55° SW
Cosmos 2098 Rocket 4.0 03:52:13 44° WSW 03:53:15 48° W 03:58:13 10° N
Abrixas 4.2 03:59:00 27° ENE 03:59:00 27° ENE 04:00:30 10° E
Okean O Rocket 4.3 03:55:28 10° NE 03:58:09 16° E 04:00:50 10° SE
Cosmos 540 Rocket 3.8 03:58:15 42° W 03:59:10 46° WNW 04:04:07 10° N
Cosmos 1908 3.9 04:03:42 40° WNW 04:03:42 40° WNW 04:06:59 10° N
MOS 1 Rocket 3.4 04:02:32 10° N 04:06:43 48° WNW 04:07:19 45° W
Cosmos 783 Rocket 4.5 04:05:06 43° SW 04:06:48 72° WNW 04:12:04 10° NNE
Cosmos 1300 2.7 04:12:33 40° S 04:13:50 76° E 04:17:40 10° NNE
Cosmos 1125 Rocket 4.2 04:09:47 10° NW 04:14:14 32° W 04:14:14 32° W
Cosmos 1943 Rocket 4.3 04:12:22 10° WNW 04:12:39 11° WNW 04:12:39 11° WNW
Sich 1 2.9 04:11:29 10° NNW 04:15:53 71° W 04:17:46 33° S
SL-16 R/B 3.2 04:15:37 30° WSW 04:16:36 31° W 04:22:04 10° NW
BREEZE M DEB (TANK) 3.0 04:17:34 33° ESE 04:17:34 33° ESE 04:19:01 10° ESE
Resurs 1-4 Rocket 2.9 04:13:10 10° N 04:17:55 35° WNW 04:19:26 29° W
CZ-2D R/B 3.3 04:16:08 10° N 04:20:07 66° WNW 04:21:16 43° SW
Cosmos 1656 Rocket 4.4 04:18:37 10° NW 04:23:29 30° WSW 04:24:03 29° WSW
Cosmos 1315 Rocket 2.9 04:23:10 10° NNW 04:27:07 53° W 04:28:33 34° SSW
CZ-2D R/B 3.1 04:23:47 10° N 04:28:24 30° WNW 04:30:14 24° W
Cosmos 1455 4.4 04:27:33 10° SE 04:30:36 24° E 04:33:41 10° NE
Cosmos 1459 Rocket 4.0 04:25:34 13° S 04:31:10 85° E 04:37:16 10° N
Cosmos 1470 Rocket 3.8 04:27:35 10° N 04:31:55 71° E 04:36:12 10° SSE
Cosmos 1538 Rocket 4.0 04:30:40 22° SSW 04:34:15 90° WNW 04:39:40 10° NNE
Cosmos 2228 Rocket 3.1 04:31:12 17° S 04:34:36 82° E 04:39:05 10° N
USA 229 DEB 4.1 04:30:17 10° NW 04:36:56 42° WSW 04:43:42 10° S
USA 229 4.1 04:30:23 10° NW 04:37:03 43° WSW 04:43:49 10° S
Cosmos 2082 Rocket 3.5 04:36:01 10° S 04:41:06 37° ESE 04:46:14 10° NE
Cosmos 1515 Rocket 3.6 04:37:53 13° S 04:41:43 81° E 04:46:09 10° N
NOSS 3-1 (A) 4.1 04:34:41 10° NW 04:42:19 87° NE 04:50:47 10° SE
PSLV R/B 3.2 04:42:54 36° WSW 04:43:54 55° S 04:47:06 10° ESE
Cosmos 1633 Rocket 3.4 04:40:06 10° NNW 04:44:14 41° W 04:46:49 20° SSW
Meteor 2-3 Rocket 4.1 04:39:55 10° N 04:45:32 67° ENE 04:51:12 10° SSE
USA 161 2.0 04:47:07 27° NW 04:47:07 27° NW 04:48:17 10° NNW
PSLV R/B 4.2 04:42:44 10° NNE 04:46:53 69° ESE 04:51:00 10° S
Tiangong 2 3.2 04:46:42 15° S 04:47:57 18° SSE 04:50:13 10° ESE
Cosmos 292 Rocket 4.4 04:46:25 23° WSW 04:48:52 40° WNW 04:53:25 10° N
ARIANE 5 R/B 4.0 04:46:10 10° NNW 04:50:09 23° WNW 04:52:31 17° W
Cosmos 2061 Rocket 4.0 04:44:07 10° S 04:50:33 78° W 04:57:01 10° N
Lacrosse 5 2.5 04:46:06 10° NW 04:51:08 59° NE 04:56:08 10° ESE
CZ-4B R/B 3.3 04:51:27 10° NNE 04:55:55 76° ESE 05:00:27 10° S
CZ-4B R/B 3.9 04:51:40 10° NNE 04:57:04 54° E 05:02:18 10° S
UNKNOWN OBJECT B 4.3 04:55:10 10° NNW 04:58:19 22° WNW 05:00:00 17° W
Cosmos 1680 Rocket 4.2 04:57:03 10° S 05:02:12 56° ESE 05:07:25 10° NNE
Cosmos 1726 3.8 05:03:54 16° W 05:05:01 18° WNW 05:07:36 10° NNW
Cosmos 2369 3.6 05:01:29 10° NNW 05:07:10 80° WSW 05:12:48 10° SSE
Cosmos 1328 Rocket 4.2 05:05:17 15° SW 05:08:22 36° WNW 05:12:25 10° N
ADEOS II 2.1 05:03:35 10° N 05:08:48 66° WNW 05:14:00 10° SSW
SL-27 R/B 4.0 05:08:12 15° W 05:09:42 20° WNW 05:12:19 10° NNW
USA 234 4.4 05:04:03 10° ENE 05:10:05 38° SE 05:16:04 10° SSW
Cosmos 1892 2.6 05:06:22 10° NNW 05:10:10 68° W 05:14:00 10° S
Cosmos 2016 Rocket 4.0 05:04:31 10° SSW 05:10:37 68° W 05:16:43 10° N
NOSS 3-1 (C) 4.2 05:04:32 10° NW 05:11:56 53° WSW 05:20:01 10° S
Meteor 1-27 4.2 05:06:17 10° SSW 05:11:57 79° W 05:17:35 10° N
Landsat 4 3.7 05:09:07 10° SSE 05:12:51 84° ENE 05:16:38 10° NNW
PSLV R/B 3.5 05:12:27 10° N 05:16:48 71° WNW 05:21:04 10° SSW
Shenzhou-11 Module 3.1 05:14:51 14° SW 05:17:07 34° SSE 05:19:58 10° E
BREEZE-M DEB (TANK) 3.9 05:20:14 10° SSW 05:20:14 10° SSW 05:20:14 10° SSW
Cosmos 1656 3.7 05:16:05 10° NNW 05:21:48 79° WSW 05:27:29 10° SSE
Cosmos 1725 Rocket 4.0 05:17:04 10° SSW 05:23:15 77° W 05:29:27 10° N
Cosmos 1802 Rocket 4.4 05:18:55 10° SSW 05:24:48 45° WNW 05:30:49 10° N
Cosmos 1825 3.5 05:21:51 10° N 05:25:31 44° ENE 05:29:10 10° SSE
Cosmos 1933 Rocket 4.3 05:21:58 10° NNW 05:26:00 34° W 05:30:00 10° SSW
Okean-O 4.3 05:27:00 10° NNE 05:31:08 37° E 05:35:14 10° SSE
Abrixas 3.2 05:30:05 10° W 05:32:21 26° SW 05:34:36 10° SSE
COSMOS 2487 2.5 05:29:39 10° SSW 05:33:09 63° WNW 05:36:42 10° NNE
Okean O Rocket 1.9 05:30:32 10° N 05:34:50 51° WNW 05:39:05 10° SSW
Cosmos 1833 Rocket 2.7 05:34:28 10° SSW 05:40:06 77° WNW 05:45:47 10° NNE
Tsikada Rocket 4.2 05:37:06 10° NNW 05:43:15 57° W 05:49:27 10° S
